This is the latest recevied weather packets stored in our database for station/object KE5QKR. If no packets are shown the sender has not sent any weather packets the latest 1 day(s).
| Time | Temp. | Humidity | Pressure | Rain* | Wind** | Luminosity | Snow |
|---|---|---|---|---|---|---|---|
| 1778012103 | 27.78° C | 66% | 1010.5 hPa | 0 mm | 0.45 m/s, 295° | 210 W/m² | - |
| 1778011801 | 27.78° C | 66% | 1010.5 hPa | 0 mm | 0.45 m/s, 312° | 483 W/m² | - |
| 1778011498 | 28.33° C | 64% | 1010.5 hPa | 0 mm | 0.45 m/s, 290° | 649 W/m² | - |
| 1778011194 | 27.78° C | 66% | 1010.3 hPa | 0 mm | 0.45 m/s, 297° | 705 W/m² | - |
| 1778010891 | 27.78° C | 64% | 1010.8 hPa | 0 mm | 0.45 m/s, 315° | 543 W/m² | - |
| 1778010588 | 27.78° C | 65% | 1010.7 hPa | 0 mm | 0 m/s | 584 W/m² | - |
| 1778010286 | 27.78° C | 66% | 1010.7 hPa | 0 mm | 0.45 m/s, 265° | 566 W/m² | - |
| 1778009986 | 28.33° C | 66% | 1010.6 hPa | 0 mm | 0.89 m/s, 276° | 510 W/m² | - |
| 1778009684 | 27.78° C | 64% | 1010.8 hPa | 0 mm | 0.89 m/s, 346° | 530 W/m² | - |
| 1778009381 | 28.33° C | 65% | 1010.7 hPa | 0 mm | 0 m/s | 660 W/m² | - |
| 1778009079 | 28.33° C | 65% | 1010.9 hPa | 0 mm | 0.45 m/s, 69° | 723 W/m² | - |
| 1778008776 | 27.78° C | 64% | 1011 hPa | 0 mm | 0 m/s | 433 W/m² | - |
| 1778008475 | 27.78° C | 65% | 1011.2 hPa | 0 mm | 0.45 m/s, 322° | 843 W/m² | - |
| 1778008172 | 27.78° C | 65% | 1011.1 hPa | 0 mm | 0.45 m/s, 303° | 832 W/m² | - |
| 1778007867 | 27.78° C | 65% | 1011.5 hPa | 0 mm | 0 m/s | 812 W/m² | - |
| 1778007562 | 27.78° C | 66% | 1011.4 hPa | 0 mm | 0.45 m/s, 280° | 660 W/m² | - |
| 1778007260 | 27.78° C | 67% | 1011.4 hPa | 0 mm | 0 m/s | 845 W/m² | - |
| 1778006956 | 27.78° C | 66% | 1011.5 hPa | 0 mm | 0.45 m/s, 287° | 395 W/m² | - |
| 1778006653 | 28.33° C | 65% | 1011.4 hPa | 0 mm | 0.89 m/s, 237° | 728 W/m² | - |
| 1778006350 | 28.33° C | 66% | 1011.7 hPa | 0 mm | 0.89 m/s, 178° | 834 W/m² | - |
| 1778006047 | 28.33° C | 63% | 1011.6 hPa | 0 mm | 0.45 m/s, 264° | 785 W/m² | - |
| 1778005743 | 28.33° C | 66% | 1011.5 hPa | 0 mm | 0 m/s | 812 W/m² | - |
| 1778005440 | 27.78° C | 65% | 1011.7 hPa | 0 mm | 0.89 m/s, 278° | 203 W/m² | - |
| 1778005137 | 27.78° C | 66% | 1011.4 hPa | 0 mm | 0.45 m/s, 4° | 735 W/m² | - |
| 1778004834 | 28.33° C | 66% | 1011.5 hPa | 0 mm | 0.45 m/s, 42° | 651 W/m² | - |
* Rain latest hour (hover to see other rain measurements)
** Current wind speed in m/s (hover to see current wind gust speed)